Notices

What's New in latest Release from April 7th, 2021:

- Updated Glossary, including Speed of Maximum Gust, and Total Hourly Precipitation

- Updated national and regional climate services offices contacts and prices information

- Addition of station inventory lists for 1981-2010, 1971-2000, and 1961-1990 Normals.

If you haven't already, please take our survey and provide feedback about our website: https://eccc.sondage-survey.ca/f/LanguageSelection.aspx?s=442ca660-fcf1-47c0-95a9-59707d6fd709

Hourly Data Report for March 21, 2020

MIRAMICHI RCS
NEW BRUNSWICK
Current Station Operator: ECCC - MSC

47°00'34.000" N
65°27'54.000" W
33.00 m
8100989
71744
ACQ

Download Data

Hourly Data (March 2020)
Hourly Data Report for March 21, 2020
TIME
LST
Temp Definition
°C
Dew Point Definition
°C
Rel Hum Definition
%
Precip. Amount Definition
mm

Wind Dir Definition
10's deg

Wind Spd Definition
km/h
Visibility Definition
km
Stn Press Definition
kPa
Hmdx Definition


Wind Chill Definition


Weather Definition


00:00 6.5 5.5 94 LegendMM 24 24   98.94     LegendNANA
01:00 6.4 2.3 75 LegendMM 27 27   99.15     LegendNANA
02:00 4.9 1.9 81 LegendMM 27 18   99.31     LegendNANA
03:00 4.3 -0.3 72 LegendMM 27 27   99.47     LegendNANA
04:00 3.5 -2.5 65 LegendMM 28 30   99.69     LegendNANA
05:00 2.1 -4.2 63 LegendMM 29 23   99.97     LegendNANA
06:00 -0.1 -7.4 58 LegendMM 29 29   100.26   -6 LegendNANA
07:00 -1.8 -9.2 57 LegendMM 29 32   100.52   -9 LegendNANA
08:00 -1.9 -10.2 53 LegendMM 29 32   100.73   -9 LegendNANA
09:00 -2.2 -11.2 50 LegendMM 28 32   100.92   -10 LegendNANA
10:00 -2.2 -16.3 33 LegendMM 30 31   101.11   -9 LegendNANA
11:00 -1.8 -17.3 30 LegendMM 30 30   101.21   -9 LegendNANA
12:00 -1.2 -17.1 29 LegendMM 29 33   101.25   -8 LegendNANA
13:00 -0.8 -17.6 27 LegendMM 29 33   101.35   -8 LegendNANA
14:00 -0.2 -16.4 28 LegendMM 30 30   101.40   -7 LegendNANA
15:00 0.0 -16.1 29 LegendMM 30 24   101.48   -6 LegendNANA
16:00 -0.3 -16.7 28 LegendMM 30 26   101.56   -6 LegendNANA
17:00 -1.1 -16.4 30 LegendMM 30 21   101.64   -7 LegendNANA
18:00 -2.6 -17.7 30 LegendMM 31 18   101.79   -8 LegendNANA
19:00 -4.3 -19.1 30 LegendMM 32 15   102.01   -10 LegendNANA
20:00 -5.6 -18.7 35 LegendMM 30 16   102.16   -12 LegendNANA
21:00 -6.8 -18.5 39 LegendMM 31 17   102.29   -13 LegendNANA
22:00 -7.8 -18.4 42 LegendMM 31 15   102.41   -14 LegendNANA
23:00 -8.7 -18.0 47 LegendMM 30 16   102.47   -15 LegendNANA

Notes on Data Quality.

Legend

  • E = Estimated
  • M = Missing
  • NA = Not Available*
  • [empty] = Indicates an unobserved value
Date modified: